• In Österreich
  • Länderverzeichnis
  • Für 7 Tage
  • Wassertemperatur
  • Satellitenkarten
  • Wetterkarte
  • News
  • Widgets
  • user-avatar
    Anmelden

    Stündliche Wetter Newcastle

    Heute, 25 Februar, Sonntag

    Zeit Temperatur Niederschläge Wind Luftdruck Luftfeuchtigkeit
    00:00 +26°C° 0 mm 4 m/S 753 mmHg 78%
    01:00 +26°C° 0 mm 3 m/S 753 mmHg 79%
    02:00 +26°C° 0 mm 3 m/S 753 mmHg 77%
    03:00 +26°C° 0 mm 3 m/S 753 mmHg 75%
    04:00 +26°C° 0 mm 3 m/S 752 mmHg 70%
    05:00 +27°C° 0 mm 3 m/S 753 mmHg 69%
    06:00 +28°C° 0 mm 3 m/S 753 mmHg 67%
    07:00 +28°C° 0 mm 3 m/S 753 mmHg 66%
    08:00 +30°C° 0 mm 3 m/S 753 mmHg 63%
    09:00 +32°C° 0 mm 4 m/S 753 mmHg 59%
    10:00 +30°C° 0 mm 6 m/S 753 mmHg 66%
    11:00 +29°C° 0,3 mm 6 m/S 753 mmHg 70%
    12:00 +28°C° 0,3 mm 6 m/S 753 mmHg 74%
    13:00 +26°C° 0,3 mm 6 m/S 753 mmHg 78%
    14:00 +24°C° 0,4 mm 6 m/S 753 mmHg 84%
    15:00 +23°C° 0,4 mm 5 m/S 753 mmHg 89%
    16:00 +21°C° 0 mm 6 m/S 754 mmHg 93%
    17:00 +21°C° 0,3 mm 6 m/S 754 mmHg 94%
    18:00 +21°C° 0,3 mm 5 m/S 754 mmHg 95%
    19:00 +20°C° 0,3 mm 5 m/S 755 mmHg 96%
    20:00 +20°C° 0,9 mm 5 m/S 755 mmHg 96%
    21:00 +20°C° 0,9 mm 5 m/S 755 mmHg 97%
    22:00 +20°C° 0,9 mm 5 m/S 755 mmHg 97%
    23:00 +20°C° 2,1 mm 5 m/S 755 mmHg 97%

    Morgen, 26 Februar, Montag

    Zeit Temperatur Niederschläge Wind Luftdruck Luftfeuchtigkeit
    00:00 +21°C° 2,1 mm 6 m/S 755 mmHg 97%
    01:00 +21°C° 2,1 mm 6 m/S 754 mmHg 98%
    02:00 +21°C° 5 mm 6 m/S 754 mmHg 98%
    03:00 +21°C° 5 mm 6 m/S 754 mmHg 98%
    04:00 +21°C° 5 mm 7 m/S 754 mmHg 97%
    05:00 +21°C° 3 mm 7 m/S 754 mmHg 97%
    06:00 +21°C° 3 mm 8 m/S 755 mmHg 96%
    07:00 +19°C° 3 mm 9 m/S 755 mmHg 95%
    08:00 +20°C° 2,2 mm 8 m/S 755 mmHg 96%
    09:00 +20°C° 2,2 mm 7 m/S 756 mmHg 96%
    10:00 +20°C° 2,2 mm 6 m/S 756 mmHg 97%
    11:00 +20°C° 1,2 mm 6 m/S 757 mmHg 97%
    12:00 +20°C° 1,2 mm 6 m/S 757 mmHg 96%
    13:00 +20°C° 1,2 mm 6 m/S 757 mmHg 96%
    14:00 +20°C° 1 mm 6 m/S 757 mmHg 96%
    15:00 +19°C° 1 mm 6 m/S 757 mmHg 95%
    16:00 +19°C° 1 mm 6 m/S 758 mmHg 94%
    17:00 +19°C° 0,7 mm 6 m/S 758 mmHg 93%
    18:00 +19°C° 0,7 mm 6 m/S 759 mmHg 93%
    19:00 +19°C° 0,7 mm 6 m/S 759 mmHg 92%
    20:00 +19°C° 0,2 mm 6 m/S 760 mmHg 92%
    21:00 +19°C° 0,2 mm 5 m/S 760 mmHg 92%
    22:00 +19°C° 0,2 mm 5 m/S 760 mmHg 92%
    23:00 +19°C° 0,1 mm 5 m/S 760 mmHg 92%

    übermorgen, 27 Februar, Dienstag

    Zeit Temperatur Niederschläge Wind Luftdruck Luftfeuchtigkeit
    00:00 +17°C° 0,1 mm 5 m/S 760 mmHg 92%
    01:00 +17°C° 0,1 mm 5 m/S 760 mmHg 92%
    02:00 +16°C° 0,1 mm 5 m/S 760 mmHg 92%
    03:00 +16°C° 0,1 mm 5 m/S 760 mmHg 92%
    04:00 +16°C° 0,1 mm 5 m/S 760 mmHg 92%
    05:00 +17°C° 0 mm 4 m/S 761 mmHg 90%
    06:00 +17°C° 0 mm 4 m/S 761 mmHg 89%
    07:00 +18°C° 0 mm 4 m/S 761 mmHg 87%
    08:00 +20°C° 0,1 mm 4 m/S 762 mmHg 77%
    09:00 +22°C° 0,1 mm 5 m/S 762 mmHg 67%
    10:00 +25°C° 0,1 mm 5 m/S 762 mmHg 57%
    11:00 +26°C° 0 mm 5 m/S 762 mmHg 55%
    12:00 +27°C° 0 mm 5 m/S 761 mmHg 53%
    13:00 +27°C° 0 mm 5 m/S 761 mmHg 51%
    14:00 +27°C° 0 mm 4 m/S 761 mmHg 53%
    15:00 +26°C° 0 mm 4 m/S 761 mmHg 55%
    16:00 +26°C° 0 mm 4 m/S 760 mmHg 57%
    17:00 +23°C° 0 mm 4 m/S 761 mmHg 66%
    18:00 +21°C° 0 mm 3 m/S 761 mmHg 74%
    19:00 +19°C° 0 mm 3 m/S 761 mmHg 83%
    20:00 +18°C° 0 mm 2 m/S 762 mmHg 85%
    21:00 +18°C° 0 mm 2 m/S 762 mmHg 88%
    22:00 +18°C° 0 mm 1 m/S 762 mmHg 91%
    23:00 +18°C° 0 mm 1 m/S 762 mmHg 92%

    28 Februar, Mittwoch

    Zeit Temperatur Niederschläge Wind Luftdruck Luftfeuchtigkeit
    00:00 +18°C° 0 mm 1 m/S 762 mmHg 93%
    01:00 +16°C° 0 mm 1 m/S 761 mmHg 94%
    02:00 +16°C° 0 mm 1 m/S 761 mmHg 95%
    03:00 +16°C° 0 mm 1 m/S 761 mmHg 96%
    04:00 +16°C° 0 mm 1 m/S 761 mmHg 97%
    05:00 +16°C° 0 mm 1 m/S 761 mmHg 93%
    06:00 +18°C° 0 mm 1 m/S 761 mmHg 90%
    07:00 +19°C° 0 mm 1 m/S 761 mmHg 87%
    08:00 +22°C° 0 mm 1 m/S 761 mmHg 75%
    09:00 +25°C° 0 mm 2 m/S 761 mmHg 63%
    10:00 +27°C° 0 mm 2 m/S 760 mmHg 50%
    11:00 +29°C° 0 mm 2 m/S 760 mmHg 45%
    12:00 +31°C° 0 mm 3 m/S 759 mmHg 40%
    13:00 +34°C° 0 mm 3 m/S 758 mmHg 34%
    14:00 +34°C° 0 mm 4 m/S 757 mmHg 36%
    15:00 +34°C° 0 mm 4 m/S 757 mmHg 37%
    16:00 +34°C° 0 mm 5 m/S 756 mmHg 39%
    17:00 +30°C° 0 mm 5 m/S 756 mmHg 49%
    18:00 +27°C° 0 mm 5 m/S 757 mmHg 59%
    19:00 +24°C° 0 mm 6 m/S 757 mmHg 70%
    20:00 +23°C° 0 mm 5 m/S 757 mmHg 74%
    21:00 +22°C° 0 mm 5 m/S 757 mmHg 77%
    22:00 +21°C° 0 mm 5 m/S 757 mmHg 81%
    23:00 +21°C° 0 mm 4 m/S 757 mmHg 79%

    1 März, Donnerstag

    Zeit Temperatur Niederschläge Wind Luftdruck Luftfeuchtigkeit
    00:00 +21°C° 0 mm 4 m/S 757 mmHg 77%
    01:00 +21°C° 0 mm 3 m/S 756 mmHg 76%
    02:00 +22°C° 0 mm 3 m/S 756 mmHg 73%
    03:00 +22°C° 0 mm 3 m/S 756 mmHg 70%
    04:00 +24°C° 0 mm 3 m/S 755 mmHg 67%
    05:00 +24°C° 0 mm 3 m/S 756 mmHg 66%
    06:00 +25°C° 0 mm 4 m/S 756 mmHg 65%
    07:00 +25°C° 0 mm 4 m/S 757 mmHg 64%
    08:00 +27°C° 0 mm 4 m/S 757 mmHg 61%
    09:00 +28°C° 0 mm 5 m/S 758 mmHg 57%
    10:00 +30°C° 0 mm 5 m/S 758 mmHg 54%
    11:00 +30°C° 0 mm 5 m/S 758 mmHg 53%
    12:00 +30°C° 0 mm 6 m/S 757 mmHg 52%
    13:00 +32°C° 0 mm 6 m/S 757 mmHg 52%
    14:00 +29°C° 0 mm 6 m/S 757 mmHg 54%
    15:00 +28°C° 0 mm 6 m/S 757 mmHg 57%
    16:00 +27°C° 0 mm 6 m/S 757 mmHg 60%
    17:00 +26°C° 0 mm 5 m/S 758 mmHg 68%
    18:00 +23°C° 0 mm 5 m/S 758 mmHg 76%
    19:00 +21°C° 0 mm 4 m/S 759 mmHg 83%
    20:00 +21°C° 0 mm 3 m/S 759 mmHg 86%
    21:00 +20°C° 0 mm 3 m/S 760 mmHg 89%
    22:00 +20°C° 0 mm 3 m/S 761 mmHg 92%
    23:00 +20°C° 0,1 mm 3 m/S 760 mmHg 92%

    2 März, Freitag

    Zeit Temperatur Niederschläge Wind Luftdruck Luftfeuchtigkeit
    00:00 +20°C° 0,1 mm 3 m/S 760 mmHg 91%
    01:00 +20°C° 0,1 mm 3 m/S 760 mmHg 91%
    02:00 +20°C° 0,1 mm 3 m/S 760 mmHg 91%
    03:00 +20°C° 0,1 mm 3 m/S 760 mmHg 91%
    04:00 +20°C° 0,1 mm 3 m/S 760 mmHg 91%
    05:00 +21°C° 0,1 mm 3 m/S 760 mmHg 91%
    06:00 +21°C° 0,1 mm 3 m/S 761 mmHg 90%
    07:00 +21°C° 0,1 mm 3 m/S 761 mmHg 90%
    08:00 +22°C° 0,1 mm 3 m/S 761 mmHg 83%
    09:00 +25°C° 0,1 mm 3 m/S 761 mmHg 76%
    10:00 +26°C° 0,1 mm 4 m/S 761 mmHg 69%
    11:00 +26°C° 0,1 mm 4 m/S 761 mmHg 66%
    12:00 +27°C° 0,1 mm 4 m/S 760 mmHg 63%
    13:00 +27°C° 0,1 mm 4 m/S 760 mmHg 60%
    14:00 +27°C° 0 mm 4 m/S 760 mmHg 61%
    15:00 +26°C° 0 mm 4 m/S 759 mmHg 62%
    16:00 +26°C° 0 mm 4 m/S 759 mmHg 64%
    17:00 +25°C° 0 mm 4 m/S 760 mmHg 69%
    18:00 +22°C° 0 mm 4 m/S 760 mmHg 75%
    19:00 +21°C° 0 mm 3 m/S 761 mmHg 80%
    20:00 +20°C° 0 mm 3 m/S 761 mmHg 83%
    21:00 +20°C° 0 mm 3 m/S 761 mmHg 86%
    22:00 +19°C° 0 mm 3 m/S 761 mmHg 88%
    23:00 +19°C° 0 mm 2 m/S 761 mmHg 89%
    Mehr zeigen